TimeEET,TemperatureF,Dew PointF,Humidity,Sea Level PressureIn,VisibilityMPH,Wind Direction,Wind SpeedMPH,Gust SpeedMPH,PrecipitationIn,Events,Conditions,WindDirDegrees,DateUTC
12:20 AM,48.2,42.8,82,30.04,6.2,North,6.9,-,N/A,,Mostly Cloudy,350,2013-03-29 22:20:00
12:50 AM,46.4,42.8,87,30.04,6.2,NNW,3.5,-,N/A,,Mostly Cloudy,340,2013-03-29 22:50:00
1:20 AM,48.2,42.8,82,30.01,6.2,NW,5.8,-,N/A,,Mostly Cloudy,310,2013-03-29 23:20:00
1:50 AM,46.4,42.8,87,30.01,6.2,NNW,5.8,-,N/A,,Mostly Cloudy,330,2013-03-29 23:50:00
2:00 AM,46,42,83,30.03,6,NNW,5.8,,,,Partly Cloudy,330,2013-03-30 00:00:00
2:20 AM,46.4,42.8,87,30.01,6.2,NNW,6.9,-,N/A,,Mostly Cloudy,340,2013-03-30 00:20:00
2:50 AM,46.4,42.8,87,30.01,6.2,NNW,6.9,-,N/A,,Mostly Cloudy,330,2013-03-30 00:50:00
3:20 AM,46.4,42.8,87,30.01,6.2,North,5.8,-,N/A,,Mostly Cloudy,350,2013-03-30 01:20:00
3:50 AM,44.6,41.0,87,30.01,6.2,North,3.5,-,N/A,,Mostly Cloudy,350,2013-03-30 01:50:00
4:20 AM,44.6,42.8,93,30.01,4.3,North,2.3,-,N/A,,Scattered Clouds,350,2013-03-30 02:20:00
4:50 AM,44.6,42.8,93,30.01,4.3,NNW,1.2,-,N/A,,Scattered Clouds,340,2013-03-30 02:50:00
5:20 AM,44.6,42.8,93,30.01,4.3,Calm,Calm,-,N/A,,Scattered Clouds,0,2013-03-30 03:20:00
5:50 AM,46.4,44.6,93,30.01,3.7,East,2.3,-,N/A,Rain,Light Rain Showers,90,2013-03-30 03:50:00
6:20 AM,48.2,46.4,93,30.01,3.7,ESE,3.5,-,N/A,,Scattered Clouds,110,2013-03-30 04:20:00
6:50 AM,48.2,46.4,93,30.01,3.7,Variable,2.3,-,N/A,,Scattered Clouds,0,2013-03-30 04:50:00
7:20 AM,50.0,44.6,82,30.01,6.2,ESE,3.5,-,N/A,,Scattered Clouds,110,2013-03-30 05:20:00
7:50 AM,51.8,44.6,76,30.01,6.2,Variable,3.5,-,N/A,,Scattered Clouds,0,2013-03-30 05:50:00
8:00 AM,51,45,72,30.01,6,East,3.5,,,,Partly Cloudy,90,2013-03-30 06:00:00
8:20 AM,53.6,44.6,72,29.98,6.2,Variable,5.8,-,N/A,,Scattered Clouds,0,2013-03-30 06:20:00
8:50 AM,55.4,46.4,72,29.98,-9999.0,ESE,4.6,-,N/A,,Clear,110,2013-03-30 06:50:00
9:20 AM,57.2,48.2,72,29.98,-9999.0,Variable,2.3,-,N/A,,Clear,0,2013-03-30 07:20:00
9:50 AM,59.0,48.2,67,29.98,-9999.0,Variable,2.3,-,N/A,,Clear,0,2013-03-30 07:50:00
10:20 AM,59.0,48.2,67,29.98,-9999.0,SSW,3.5,-,N/A,,Clear,200,2013-03-30 08:20:00
10:50 AM,60.8,48.2,63,29.98,-9999.0,Variable,2.3,-,N/A,,Clear,0,2013-03-30 08:50:00
11:20 AM,60.8,48.2,63,29.98,-9999.0,WSW,3.5,-,N/A,,Clear,240,2013-03-30 09:20:00
11:50 AM,60.8,48.2,63,29.98,-9999.0,WSW,5.8,-,N/A,,Clear,250,2013-03-30 09:50:00
12:20 PM,62.6,46.4,55,29.98,-9999.0,WSW,4.6,-,N/A,,Clear,250,2013-03-30 10:20:00
12:50 PM,64.4,46.4,52,29.95,-9999.0,WSW,6.9,-,N/A,,Clear,250,2013-03-30 10:50:00
1:20 PM,66.2,48.2,52,29.95,-9999.0,WSW,8.1,-,N/A,,Clear,250,2013-03-30 11:20:00
1:50 PM,62.6,48.2,59,29.95,-9999.0,WSW,9.2,-,N/A,,Clear,240,2013-03-30 11:50:00
2:00 PM,63,47,46,29.96,6,WSW,9.2,,,,Partly Cloudy,240,2013-03-30 12:00:00
2:20 PM,66.2,50.0,56,29.95,-9999.0,WSW,6.9,-,N/A,,Clear,240,2013-03-30 12:20:00
2:50 PM,64.4,48.2,56,29.92,-9999.0,SW,8.1,-,N/A,,Clear,230,2013-03-30 12:50:00
3:20 PM,62.6,48.2,59,29.92,-9999.0,SW,6.9,-,N/A,,Clear,230,2013-03-30 13:20:00
3:50 PM,60.8,48.2,63,29.92,-9999.0,SSW,5.8,-,N/A,,Clear,200,2013-03-30 13:50:00
4:20 PM,60.8,48.2,63,29.89,-9999.0,South,5.8,-,N/A,,Clear,180,2013-03-30 14:20:00
4:50 PM,60.8,48.2,63,29.89,-9999.0,South,3.5,-,N/A,,Clear,180,2013-03-30 14:50:00
5:20 PM,59.0,46.4,63,29.89,-9999.0,SSE,4.6,-,N/A,,Clear,160,2013-03-30 15:20:00
5:50 PM,59.0,46.4,63,29.89,-9999.0,SSE,3.5,-,N/A,,Clear,160,2013-03-30 15:50:00
6:20 PM,59.0,46.4,63,29.89,-9999.0,SE,4.6,-,N/A,,Clear,140,2013-03-30 16:20:00
6:50 PM,60.8,46.4,59,29.89,-9999.0,ESE,3.5,-,N/A,,Clear,120,2013-03-30 16:50:00
7:20 PM,59.0,46.4,63,29.89,-9999.0,Variable,1.2,-,N/A,,Clear,0,2013-03-30 17:20:00
7:50 PM,59.0,46.4,63,29.89,-9999.0,NNW,2.3,-,N/A,,Clear,340,2013-03-30 17:50:00
8:00 PM,59,47,54,29.91,6,NNW,2.3,,,,,340,2013-03-30 18:00:00
8:20 PM,59.0,46.4,63,29.89,-9999.0,NNW,3.5,-,N/A,,Clear,340,2013-03-30 18:20:00
8:50 PM,60.8,46.4,59,29.89,-9999.0,Variable,2.3,-,N/A,,Clear,0,2013-03-30 18:50:00
9:20 PM,60.8,48.2,63,29.89,-9999.0,Variable,2.3,-,N/A,,Clear,0,2013-03-30 19:20:00
9:50 PM,59.0,46.4,63,29.89,-9999.0,Variable,1.2,-,N/A,,Clear,0,2013-03-30 19:50:00
10:20 PM,59.0,46.4,63,29.89,-9999.0,Variable,1.2,-,N/A,,Clear,0,2013-03-30 20:20:00
10:50 PM,60.8,46.4,59,29.89,-9999.0,South,3.5,-,N/A,,Clear,190,2013-03-30 20:50:00
11:20 PM,57.2,46.4,67,29.89,-9999.0,West,4.6,-,N/A,,Clear,260,2013-03-30 21:20:00
11:50 PM,57.2,46.4,67,29.89,-9999.0,Variable,1.2,-,N/A,,Clear,0,2013-03-30 21:50:00